Cloverdale, Indiana, United States (46120)
Lat: 39.51N, Lon: 86.79W
Wx Zone: INZ045
Local Info
Past Weather Observations for Tuesday, November 25, 2014

NOTE: This archive is for the closest National Weather Service station to Cloverdale. Information may differ from the station used for current weather conditions.

Click here for Long-term Archive

Time Weather Temperature Dewpoint Humidity Pressure Winds Precip Visibility
23:53
Overcast
28°F / -2°C 23°F / -5°C 80% 30.18 in
(1022 mb)
N 5.8 mph
(N 9 kph)
- 10SM
23:04
Overcast
28°F / -2°C 23°F / -5°C 80% 30.18 in
(1022 mb)
Calm - 10SM
22:53
Overcast
28°F / -2°C 25°F / -4°C 86% 30.18 in
(1022 mb)
N 5.8 mph
(N 9 kph)
- 10SM
21:53
Overcast
30°F / -1°C 25°F / -4°C 80% 30.21 in
(1023 mb)
Variable 4.6 mph
(Variable 7 kph)
- 10SM
20:53
Overcast
30°F / -1°C 25°F / -4°C 80% 30.21 in
(1023 mb)
Variable 4.6 mph
(Variable 7 kph)
- 10SM
19:53
Overcast
30°F / -1°C 25°F / -4°C 80% 30.18 in
(1022 mb)
Calm - 10SM
18:53
Overcast
30°F / -1°C 25°F / -4°C 80% 30.18 in
(1022 mb)
W 3.5 mph
(W 6 kph)
- 10SM
17:53
Overcast
30°F / -1°C 25°F / -4°C 80% 30.15 in
(1021 mb)
Calm - 10SM
16:53
Overcast
30°F / -1°C 25°F / -4°C 80% 30.15 in
(1021 mb)
W 4.6 mph
(W 7 kph)
- 10SM
15:53
Overcast
32°F / 0°C 25°F / -4°C 75% 30.15 in
(1021 mb)
W 5.8 mph
(W 9 kph)
- 10SM
14:53
Overcast
34°F / 1°C 27°F / -3°C 75% 30.12 in
(1020 mb)
W 9.2 mph
(W 15 kph)
- 10SM
13:53
Overcast
34°F / 1°C 27°F / -3°C 75% 30.15 in
(1021 mb)
SSW 8.1 mph
(SSW 13 kph)
- 10SM
12:53
Overcast
34°F / 1°C 27°F / -3°C 75% 30.15 in
(1021 mb)
W 6.9 mph
(W 11 kph)
- 10SM
11:53
Overcast
34°F / 1°C 27°F / -3°C 75% 30.15 in
(1021 mb)
W 10.4 mph
(W 17 kph)
- 10SM
10:53
Overcast
34°F / 1°C 27°F / -3°C 75% 30.15 in
(1021 mb)
W 10.4 mph
(W 17 kph)
- 10SM
09:53
Mostly Cloudy
34°F / 1°C 27°F / -3°C 75% 30.09 in
(1019 mb)
WNW 12.7 mph
(WNW 20 kph)
- 10SM
08:53
Clear
32°F / 0°C 27°F / -3°C 80% 30.06 in
(1018 mb)
SSW 8.1 mph
(SSW 13 kph)
- 10SM
07:53
Partly Cloudy
34°F / 1°C 27°F / -3°C 75% 30.06 in
(1018 mb)
SSW 9.2 mph
(SSW 15 kph)
- 10SM
07:31
Mostly Cloudy
34°F / 1°C 28°F / -2°C 81% 30.04 in
(1017 mb)
SSW 9.2 mph
(SSW 15 kph)
- 10SM
06:53
Overcast
34°F / 1°C 28°F / -2°C 81% 30.04 in
(1017 mb)
SSW 8.1 mph
(SSW 13 kph)
- 10SM
05:53
Overcast
34°F / 1°C 28°F / -2°C 81% 30.01 in
(1016 mb)
SW 4.6 mph
(SW 7 kph)
- 10SM
04:53
Overcast
34°F / 1°C 27°F / -3°C 75% 30.01 in
(1016 mb)
SW 3.5 mph
(SW 6 kph)
- 10SM
04:11
Mostly Cloudy
30°F / -1°C 27°F / -3°C 86% 30.01 in
(1016 mb)
SW 3.5 mph
(SW 6 kph)
- 10SM
03:53
Clear
32°F / 0°C 27°F / -3°C 80% 30.01 in
(1016 mb)
SSW 3.5 mph
(SSW 6 kph)
- 10SM
02:53
Clear
34°F / 1°C 27°F / -3°C 75% 29.98 in
(1015 mb)
W 6.9 mph
(W 11 kph)
- 10SM
01:53
Clear
34°F / 1°C 28°F / -2°C 81% 29.95 in
(1014 mb)
W 6.9 mph
(W 11 kph)
- 10SM
00:53
Clear
36°F / 2°C 27°F / -3°C 70% 29.95 in
(1014 mb)
SSW 9.2 mph
(SSW 15 kph)
- 10SM
Time Weather Temperature Dewpoint Humidity Pressure Winds Precip Visibility


Weather for websites

WeatherForYou.com, LLC is not responsible for any damages or problems caused by this service. Current weather conditions are obtained from the closest station including government and personal stations which may have varying degrees of accuracy. Weather forecasts are derived from the NOAA NDFD. Like all things, this site belongs to Jesus Christ... He just trusts me to maintain it. If you have any questions or comments email webmaster@weatherforyou.com

Copyright © 2014, WeatherForYou.com LLC. All rights reserved.